Starlink 1392

operational
NORAD ID: 45677 Int'l Des: 2020-035 Owner: SPXS Country: US Constellation: starlink
LEOCIRCULARSTARLINK_TYPE

Starlink 1392について

説明を読み込み中...

リアルタイム位置

3D地球を読み込み中...

次回通過

高度履歴

Altitude vs Time

uPlot chart will show altitude changes over time

軌道要素

1 45677U 20035W 25352.50370393 -.00000063 00000-0 14680-4 0 9999
2 45677 53.0556 71.0786 0001112 90.2500 269.8616 15.06392791306498
Epoch: Dec 18, 2025 • Age: 14 hours

現在のステータス

高度 563.6 km
速度 7.58 km/s
衛星直下点 -46.15°S, 176.91°W
打ち上げ日 Jun 4, 2020
運用期間 5.5 years
タイプ internet

技術仕様

分類 Payload
質量 260.00 kg
乾燥質量 248.00 kg
総質量 260.00 kg
長さ 0.20 m
直径 2.80 m
スパン 9.00 m
形状 Box + pan
製造者 SPXS
バスタイプ Starlink
フェーズステータス In Orbit
所有者/国 SPXS/US

大規模コンステレーション

Loading constellations...